SCD 1 1 22490U 93009B 26063.55792058 .00000572 00000+0 10554-3 0 9997 2 22490 24.9684 133.5728 0042203 110.4898 26.7654 14.46064200745950 TECHSAT 1B (GO-32) 1 25397U 98043D 26063.47176809 .00000141 00000+0 80934-4 0 9992 2 25397 99.0021 53.6166 0001909 127.7289 232.4062 14.24404532436428 SCD 2 1 25504U 98060A 26063.16934020 .00000587 00000+0 11294-3 0 9990 2 25504 24.9967 359.7833 0016989 93.4899 36.6782 14.45479573445114 DLR-TUBSAT 1 25757U 99029B 26063.51016952 .00000227 00000+0 67493-4 0 9994 2 25757 98.6659 55.5929 0013335 311.7470 48.2584 14.52395353418053 TERRA 1 25994U 99068A 26063.59679119 .00000645 00000+0 14056-3 0 9998 2 25994 97.9603 117.2259 0002377 163.6152 352.3892 14.61008698394332 MAROC-TUBSAT 1 27004U 01056D 26063.43549781 -.00000020 00000+0 29556-4 0 9996 2 27004 99.8002 238.3382 0020414 52.6621 336.0829 13.70257720211846 AQUA 1 27424U 02022A 26063.61871009 .00001466 00000+0 30251-3 0 9994 2 27424 98.4166 30.8916 0000640 60.9696 353.8727 14.61962533267996 IRS-P6 (RESOURCESAT-1) 1 28051U 03046A 26063.59915782 .00000629 00000+0 22530-3 0 9993 2 28051 98.2053 105.1694 0063060 296.6818 215.3138 14.36114850165510 SHIYAN-1 (SY-1) 1 28220U 04012A 26063.18082462 .00020887 00000+0 70206-3 0 9991 2 28220 97.8781 134.6261 0006298 41.7510 318.4209 15.30840801195015 AURA 1 28376U 04026A 26063.56100369 .00001443 00000+0 30319-3 0 9995 2 28376 98.3303 19.2308 0001027 78.9707 281.1609 14.61134681150935 IRS-P5 (CARTOSAT-1) 1 28649U 05017A 26063.51325492 .00002031 00000+0 21210-3 0 9994 2 28649 97.5417 91.2911 0002466 75.0089 285.1403 14.90744626128225 SINAH 1 1 28893U 05043D 26063.62892287 .00000709 00000+0 14435-3 0 9998 2 28893 98.2675 197.4405 0013430 241.3436 118.6416 14.64066577 85223 RESURS-DK 1 1 29228U 06021A 26063.50997779 .00003809 00000+0 22311-3 0 9993 2 29228 69.9304 250.4226 0002412 165.2487 194.8750 15.12702247 86749 ARIRANG-2 (KOMPSAT-2) 1 29268U 06031A 26063.63535156 .00000308 00000+0 66337-4 0 9997 2 29268 97.8292 253.1328 0015531 48.7455 42.0596 14.64582619 46178 LAPAN-TUBSAT 1 29709U 07001A 26063.60708784 .00001113 00000+0 13434-3 0 9995 2 29709 98.1319 60.4938 0012464 160.0309 200.1396 14.85820907 35627 HAIYANG-1B 1 31113U 07010A 26063.47342204 .00000171 00000+0 80663-4 0 9995 2 31113 98.3421 49.4231 0014052 147.4465 212.7588 14.30997629985650 COSMO-SKYMED 1 1 31598U 07023A 26063.58285075 .00005410 00000+0 48150-3 0 9995 2 31598 97.8860 254.5744 0000834 94.3084 265.8232 14.96487875 14147 TERRASAR-X 1 31698U 07026A 26063.59288471 .00002043 00000+0 10048-3 0 9997 2 31698 97.4462 72.7879 0001848 78.4476 281.6966 15.19148874 37341 WORLDVIEW-1 (WV-1) 1 32060U 07041A 26063.31980560 .00013015 00000+0 53305-3 0 9990 2 32060 97.3832 184.5781 0002916 150.4667 209.6736 15.24421497 26905 YAOGAN-3 1 32289U 07055A 26063.60642738 .00004671 00000+0 48600-3 0 9992 2 32289 97.8273 94.4876 0001667 82.9236 277.2171 14.90333516990280 COSMO-SKYMED 2 1 32376U 07059A 26063.65474216 .00000772 00000+0 10345-3 0 9995 2 32376 97.8860 248.7637 0001309 82.7879 277.3483 14.82158270986513 RADARSAT-2 1 32382U 07061A 26063.57128332 .00000204 00000+0 95973-4 0 9992 2 32382 98.5809 71.9839 0001189 83.8582 276.2736 14.29981984951002 CARTOSAT-2A 1 32783U 08021A 26063.59981075 .00001066 00000+0 15060-3 0 9992 2 32783 97.7788 115.8158 0013292 91.0884 269.1850 14.79089818963348 HUANJING 1A (HJ-1A) 1 33320U 08041A 26063.64467525 .00001462 00000+0 18252-3 0 9993 2 33320 97.6622 53.5819 0020458 119.3406 240.9856 14.83696799942909 HUANJING 1B (HJ-1B) 1 33321U 08041B 26063.63586499 .00000974 00000+0 12460-3 0 9997 2 33321 97.6470 57.0505 0036634 164.1079 196.1294 14.83085731942916 GEOEYE 1 1 33331U 08042A 26063.63159010 .00000769 00000+0 15312-3 0 9995 2 33331 98.1215 138.8845 0004304 41.9180 318.2352 14.64759938934840 THEOS 1 33396U 08049A 26063.62322899 .00000228 00000+0 12673-3 0 9996 2 33396 98.5716 124.2428 0001042 88.6159 271.5138 14.20116963903124 COSMO-SKYMED 3 1 33412U 08054A 26063.60430369 .00005137 00000+0 35429-3 0 9999 2 33412 97.8421 280.4037 0014691 261.0366 98.9198 15.06191422941194 YAOGAN-4 1 33446U 08061A 26063.38958534 .00002033 00000+0 25650-3 0 9995 2 33446 97.9245 357.7324 0015616 55.2251 305.0430 14.82959497930137 GOSAT (IBUKI) 1 33492U 09002A 26063.20621588 .00000446 00000+0 87015-4 0 9999 2 33492 98.0769 175.6761 0001363 85.5243 274.6117 14.67547057916061 DEIMOS-1 1 35681U 09041A 26063.66078720 .00000684 00000+0 10852-3 0 9996 2 35681 97.7239 225.5004 0001975 124.5117 235.6279 14.75104415891478 DUBAISAT-1 1 35682U 09041B 26063.34918018 .00001829 00000+0 27990-3 0 9998 2 35682 97.9864 197.8731 0011363 52.2168 308.0068 14.74889310889648 OCEANSAT-2 1 35931U 09051A 26063.61499811 .00000063 00000+0 68548-4 0 9995 2 35931 98.2271 60.9377 0017020 166.2929 193.8703 13.99636087864707 WORLDVIEW-2 (WV-2) 1 35946U 09055A 26063.57750773 .00000227 00000+0 89644-4 0 9999 2 35946 98.4702 138.5159 0004777 158.6524 201.4863 14.37908139860617 SMOS 1 36036U 09059A 26063.52839370 .00000449 00000+0 15704-3 0 9991 2 36036 98.4425 252.3805 0001031 80.1660 279.9644 14.39755957858392 YAOGAN-7 1 36110U 09069A 26063.28581941 .00001135 00000+0 16426-3 0 9991 2 36110 98.0220 309.7231 0025176 20.5595 339.6623 14.77882479874138 TANDEM-X 1 36605U 10030A 26063.59288367 .00001724 00000+0 85277-4 0 9995 2 36605 97.4474 72.7874 0001860 96.6077 263.5369 15.19148698870766 CARTOSAT-2B 1 36795U 10035A 26063.58616851 .00000873 00000+0 12548-3 0 9996 2 36795 97.8563 114.9778 0012270 165.0678 195.0898 14.78820902844391 YAOGAN-10 1 36834U 10038A 26063.66820234 .00001987 00000+0 23936-3 0 9994 2 36834 97.9078 87.8783 0001655 89.8620 50.1587 14.84989308841695 COSMO-SKYMED 4 1 37216U 10060A 26063.66740784 .00000994 00000+0 13136-3 0 9993 2 37216 97.8851 248.7765 0001383 85.0525 275.0846 14.82154828829080 RESOURCESAT-2 1 37387U 11015A 26063.64422775 -.00000213 00000+0 -77042-4 0 9991 2 37387 98.7733 131.7633 0006204 152.2262 207.9248 14.21485704771321 HAIYANG-2A 1 37781U 11043A 26063.63346451 -.00000004 00000+0 39941-4 0 9998 2 37781 99.3422 68.3149 0001093 285.5807 74.5224 13.78357569732275 RASAT 1 37791U 11044D 26063.63569958 .00000904 00000+0 16567-3 0 9995 2 37791 98.0568 156.6548 0020986 160.4785 307.5659 14.68047409777847 SRMSAT 1 37841U 11058D 26063.11917397 .00000501 00000+0 12795-3 0 9995 2 37841 19.9731 335.4194 0011881 128.0964 11.1385 14.11545206742958 PLEIADES 1A 1 38012U 11076F 26063.66295360 .00000714 00000+0 16350-3 0 9992 2 38012 98.2058 140.1400 0001663 92.0951 63.4195 14.58535339756754 ZIYUAN 1-02C (ZY 1-02C) 1 38038U 11079A 26063.66389959 .00000861 00000+0 29816-3 0 9995 2 38038 98.4187 133.1183 0005252 258.3301 254.1064 14.38118337744182 ARIRANG-3 (KOMPSAT-3) 1 38338U 12025B 26063.60405956 .00000858 00000+0 18006-3 0 9995 2 38338 98.1054 22.9476 0006790 83.5752 276.6223 14.62094398736062 EXACTVIEW-1 (ADS-1B) 1 38709U 12039C 26063.33743534 .00000229 00000+0 11747-3 0 9996 2 38709 98.9635 178.4401 0011855 112.5094 247.7341 14.24948565707770 SPOT 6 1 38755U 12047A 26063.64840388 .00000738 00000+0 16860-3 0 9991 2 38755 98.2234 132.1329 0001444 93.6583 266.4782 14.58537989717814 PLEIADES 1B 1 39019U 12068A 26063.59892368 .00000808 00000+0 18380-3 0 9994 2 39019 98.2029 140.0624 0001604 88.5601 271.5783 14.58522930705600 GOKTURK 2 1 39030U 12073A 26063.57711573 .00000411 00000+0 67410-4 0 9998 2 39030 97.6882 266.2077 0001216 55.2670 304.8654 14.75424824709087 LANDSAT 8 1 39084U 13008A 26063.57889547 .00000547 00000+0 13147-3 0 9990 2 39084 98.1928 135.3882 0001237 91.1314 269.0026 14.57125635682667 SARAL 1 39086U 13009A 26063.57321249 .00000179 00000+0 81526-4 0 9991 2 39086 98.5552 251.4533 0001182 197.6912 162.4231 14.32826477680627 GAOFEN-1 1 39150U 13018A 26063.63333906 .00001411 00000+0 20937-3 0 9991 2 39150 97.9190 137.7879 0016132 241.8651 118.0929 14.76537553692819 VNREDSAT 1 1 39160U 13021B 26063.58223395 .00000912 00000+0 17849-3 0 9993 2 39160 97.9228 120.9398 0001616 89.0594 271.0795 14.65064805684973 ARIRANG-5 (KOMPSAT-5) 1 39227U 13042A 26063.61495057 .00001719 00000+0 12708-3 0 9995 2 39227 97.6173 251.7684 0003822 124.3950 235.7638 15.04518327688136 SKYSAT-A 1 39418U 13066C 26063.07764378 .00005329 00000+0 30990-3 0 9992 2 39418 97.3964 115.7952 0020540 321.1305 38.8448 15.12304975672592 DUBAISAT-2 1 39419U 13066D 26063.61840248 .00006006 00000+0 38005-3 0 9992 2 39419 97.4523 56.5927 0012822 40.3833 319.8346 15.09289294670611 GPM-CORE 1 39574U 14009C 26063.59543997 .00013268 00000+0 28760-3 0 9995 2 39574 64.9734 298.5515 0012422 264.7583 95.2140 15.44618706681653 SENTINEL-1A 1 39634U 14016A 26063.59037376 .00000391 00000+0 92751-4 0 9994 2 39634 98.1813 72.6336 0001373 83.6503 276.4853 14.59196594634767 KAZEOSAT 1 1 39731U 14024A 26063.59622618 .00000575 00000+0 18831-3 0 9990 2 39731 98.3298 138.6130 0001076 80.8363 279.2949 14.42033312623486 ALOS-2 1 39766U 14029A 26063.57879413 .00004276 00000+0 57891-3 0 9999 2 39766 97.9205 162.2508 0001519 97.9773 262.1611 14.79482663636113 KAZEOSAT 2 1 40010U 14033A 26063.61480205 .00000716 00000+0 89134-4 0 9991 2 40010 97.5485 268.7003 0007542 312.9835 47.0748 14.85327199633438 HODOYOSHI-4 1 40011U 14033B 26063.60054163 .00002948 00000+0 32683-3 0 9996 2 40011 97.5438 253.4796 0022487 293.9575 65.9288 14.87821342633250 DEIMOS-2 1 40013U 14033D 26063.60351140 .00003221 00000+0 31206-3 0 9998 2 40013 97.5987 301.6934 0001270 59.3531 300.7814 14.93382808622118 HODOYOSHI-3 1 40015U 14033F 26063.42534880 .00001920 00000+0 22855-3 0 9998 2 40015 97.6291 230.7613 0032488 341.9682 18.0378 14.85120476632079 SPOT 7 1 40053U 14034A 26063.59537104 .00000845 00000+0 18215-3 0 9991 2 40053 98.0759 128.7334 0001290 101.0198 259.1148 14.60854658621862 SKYSAT-B 1 40072U 14037D 26063.41616428 .00003135 00000+0 35068-3 0 9993 2 40072 98.3722 16.5076 0004206 255.9673 104.1074 14.87701718630381 WORLDVIEW-3 (WV-3) 1 40115U 14048A 26063.51918129 .00001458 00000+0 17803-3 0 9990 2 40115 97.8643 139.7804 0000516 12.9914 347.1314 14.84821158626379 GAOFEN-2 1 40118U 14049A 26063.64486282 .00000617 00000+0 87008-4 0 9999 2 40118 98.0238 127.9052 0006665 202.7716 157.3201 14.80760965623769 YAOGAN-21 1 40143U 14053A 26063.61261475 .00009214 00000+0 37308-3 0 9993 2 40143 97.1622 108.3742 0010144 101.2517 258.9862 15.24841370639017 YAOGAN-22 1 40275U 14063A 26063.38725440 -.00000024 00000+0 59717-4 0 9991 2 40275 100.7526 212.9903 0006721 69.3263 290.8569 13.15526787546034 ASNARO 1 40298U 14070A 26063.58958019 .00018433 00000+0 86518-3 0 9996 2 40298 97.3526 142.4857 0007148 156.7626 203.3933 15.19669402628126 YAOGAN-24 1 40310U 14072A 26063.62720193 .00001654 00000+0 24634-3 0 9996 2 40310 98.1294 200.1889 0012092 236.0596 123.9464 14.76218198608297 CBERS 4 1 40336U 14079A 26063.62464961 .00000444 00000+0 16947-3 0 9993 2 40336 98.3496 123.7998 0000797 53.9016 306.2244 14.35412319588952 YAOGAN-26 1 40362U 14088A 26063.61470984 .00018685 00000+0 42609-3 0 9993 2 40362 97.0659 66.5900 0007346 76.9212 283.2856 15.42923251621553 SMAP 1 40376U 15003A 26063.60119453 .00000789 00000+0 16183-3 0 9990 2 40376 98.1311 72.1610 0001266 112.9335 247.2001 14.63331472592322 KOMPSAT-3A 1 40536U 15014A 26063.61871536 .00033159 00000+0 57768-3 0 9999 2 40536 97.6865 47.7923 0062920 195.9014 164.0262 15.48428585605609 SENTINEL-2A 1 40697U 15028A 26056.18000490 .00000159 00000+0 76852-4 0 9999 2 40697 98.5024 132.8928 0054368 194.7437 165.2162 14.30192923557712 GAOFEN-8 1 40701U 15030A 26063.62223589 .00033354 00000+0 77577-3 0 9998 2 40701 97.6926 250.9880 0009316 206.2293 153.8483 15.42206432595312 CARBONITE 1 (CBNT-1) 1 40718U 15032D 26063.62925227 .00001883 00000+0 23651-3 0 9992 2 40718 97.6450 246.1142 0013352 278.6940 81.2762 14.83187778573840 YAOGAN-27 1 40878U 15040A 26063.65187634 -.00000105 00000+0 -16395-3 0 9998 2 40878 100.1091 54.6005 0008904 94.7739 265.4392 13.16064104503916 GAOFEN-9 01 1 40894U 15047A 26063.60010262 .00001574 00000+0 20012-3 0 9990 2 40894 97.6425 103.9881 0028765 121.7646 238.6377 14.82667059564699 YAOGAN-28 1 41026U 15064A 26063.65171801 .00011496 00000+0 45027-3 0 9996 2 41026 97.2894 204.2591 0010829 194.1841 165.9095 15.25896696574733 YAOGAN-29 1 41038U 15069A 26063.59911294 .00000349 00000+0 49664-4 0 9992 2 41038 98.0146 92.0148 0002229 43.8125 316.3265 14.82988418555125 KENT RIDGE 1 1 41167U 15077B 26062.96978596 .00006215 00000+0 22880-3 0 9990 2 41167 14.9805 328.0772 0008417 196.0316 163.9740 15.22395577565038 GAOFEN-4 1 41194U 15083A 26063.03528046 -.00000347 00000+0 00000+0 0 9994 2 41194 0.3787 83.8226 0003668 85.1751 111.1639 1.00269549 37474 JASON-3 1 41240U 16002A 26063.61428231 -.00000027 00000+0 14026-3 0 9999 2 41240 66.0449 345.6909 0007828 276.8398 83.1730 12.87628190473781 SENTINEL-3A 1 41335U 16011A 26063.58273841 .00000177 00000+0 91192-4 0 9990 2 41335 98.6239 132.4437 0001232 100.4961 259.6358 14.26739672523148 ZIYUAN 3-02 (ZY 3-02) 1 41556U 16033A 26063.61038940 .00010351 00000+0 46251-3 0 9992 2 41556 97.3912 141.3571 0011245 318.9075 41.1313 15.21468143542089 CARTOSAT-2C 1 41599U 16040A 26063.59988566 .00008174 00000+0 38975-3 0 9996 2 41599 97.4617 124.9463 0010526 138.7394 221.4638 15.19308503537839 SKYSAT-C1 1 41601U 16040C 26063.54907444 .00013270 00000+0 40037-3 0 9996 2 41601 96.9701 101.0001 0003927 63.5583 296.6063 15.34386901541811 LAPAN-A3 1 41603U 16040E 26063.60498972 .00006078 00000+0 19675-3 0 9998 2 41603 97.1475 63.2539 0011619 39.6161 320.5929 15.32325081538793 GAOFEN-3 1 41727U 16049A 26063.60089541 .00000172 00000+0 65403-4 0 9992 2 41727 98.4047 72.9493 0001629 94.1418 265.9958 14.42215007503574 SKYSAT-C4 1 41771U 16058B 26063.60440406 .00022402 00000+0 47357-3 0 9999 2 41771 96.9290 89.9386 0000841 89.9832 270.1515 15.45162810529305 SKYSAT-C5 1 41772U 16058C 26063.54260623 .00013001 00000+0 39509-3 0 9999 2 41772 97.0620 108.8291 0001863 85.2729 274.8728 15.34172728527706 SKYSAT-C2 1 41773U 16058D 26063.05382248 .00017629 00000+0 45017-3 0 9995 2 41773 97.0280 89.2282 0005284 81.1583 279.0262 15.39520258528863 SKYSAT-C3 1 41774U 16058E 26063.06410134 .00030426 00000+0 58203-3 0 9994 2 41774 96.9182 98.1747 0001528 100.8480 259.2944 15.48020744529829 ALSAT-1B 1 41785U 16059C 26063.57362314 .00000563 00000+0 96855-4 0 9994 2 41785 97.7798 76.8376 0008714 194.3603 165.7359 14.72180973505184 PATHFINDER 1 1 41787U 16059E 26063.48038691 .00001174 00000+0 21406-3 0 9992 2 41787 97.8176 67.4910 0028508 177.2546 182.8821 14.67508013504351 SCATSAT 1 1 41790U 16059H 26063.17477044 .00002065 00000+0 27873-3 0 9995 2 41790 98.1314 125.8229 0054067 225.5115 134.1670 14.79242667 86061 GOKTURK 1A 1 41875U 16073A 26063.65612120 .00000055 00000+0 19970-4 0 9991 2 41875 98.1379 319.9030 0001359 77.9859 282.1495 14.62741563493547 RESOURCESAT-2A 1 41877U 16074A 26063.62316892 .00000414 00000+0 20912-3 0 9994 2 41877 98.7616 137.9511 0002714 47.1722 312.9683 14.21598907479446 CARTOSAT-2D 1 41948U 17008A 26063.63346424 .00010053 00000+0 47871-3 0 9999 2 41948 97.4243 124.8213 0004506 237.0068 123.0734 15.19329822501704 SENTINEL-2B 1 42063U 17013A 26063.59210799 .00000517 00000+0 21379-3 0 9993 2 42063 98.5671 139.8603 0001105 93.6929 266.4380 14.30818938469685 CARTOSAT-2E 1 42767U 17036C 26063.65047955 .00009459 00000+0 45148-3 0 9992 2 42767 97.4406 125.1059 0002966 318.9018 41.1993 15.19269060482273 FORMOSAT-5 1 42920U 17049A 26063.63802156 .00000321 00000+0 92451-4 0 9996 2 42920 98.2320 141.2550 0011940 50.9440 309.2816 14.50818304451517 SENTINEL-5P 1 42969U 17064A 26063.45922626 .00000120 00000+0 77682-4 0 9997 2 42969 98.7876 6.3590 0001100 80.6648 279.4652 14.19547696434709 SKYSAT-C11 1 42987U 17068A 26063.62385022 .00038102 00000+0 63253-3 0 9992 2 42987 97.4194 208.4424 0000747 87.6930 272.4408 15.52016345466994 SKYSAT-C10 1 42988U 17068B 26063.31269518 .00017986 00000+0 57448-3 0 9996 2 42988 97.4329 199.3999 0001143 90.4216 269.7157 15.32525278466280 SKYSAT-C9 1 42989U 17068C 26063.38073272 .00023900 00000+0 62538-3 0 9993 2 42989 97.4254 199.4601 0009705 150.2472 209.9327 15.38684553466621 SKYSAT-C8 1 42990U 17068D 26063.36959506 .00008146 00000+0 24537-3 0 9998 2 42990 97.4357 198.8789 0001710 108.5724 251.5705 15.34600559466220 SKYSAT-C7 1 42991U 17068E 26063.62033797 .00017354 00000+0 51974-3 0 9999 2 42991 97.4359 200.1125 0007410 119.3141 240.8843 15.34558146466329 SKYSAT-C6 1 42992U 17068F 26063.60950972 .00015599 00000+0 49752-3 0 9991 2 42992 97.4394 200.4012 0003572 124.0525 236.1056 15.32597474466296 CARTOSAT-2F 1 43111U 18004A 26063.61659655 .00010265 00000+0 49049-3 0 9995 2 43111 97.4171 124.8677 0000480 252.4436 107.6746 15.19210693451451 GAOFEN-1 02 1 43259U 18031A 26063.59254126 .00001287 00000+0 19229-3 0 9990 2 43259 98.0658 126.3521 0002772 3.8313 356.2917 14.76470595427269 GAOFEN-1 03 1 43260U 18031B 26063.63845237 .00001272 00000+0 19024-3 0 9993 2 43260 98.0645 126.2667 0003942 64.0566 296.1050 14.76466856427261 GAOFEN-1 04 1 43262U 18031D 26063.61414760 .00001752 00000+0 25916-3 0 9996 2 43262 98.0660 126.4212 0002094 87.4537 272.6912 14.76469853427257 SENTINEL-3B 1 43437U 18039A 26063.20521182 .00000191 00000+0 96845-4 0 9996 2 43437 98.6239 132.2188 0000863 127.4715 232.6544 14.26742576409158 GAOFEN-5 01 1 43461U 18043A 26063.52003996 .00000717 00000+0 15779-3 0 9991 2 43461 98.4457 32.9801 0002814 61.9392 298.2092 14.60517092416418 GAOFEN-6 1 43484U 18048A 26063.64596124 .00000905 00000+0 13656-3 0 9995 2 43484 97.7886 130.1049 0012802 149.8482 210.3468 14.76585382417967 GAOFEN-11 01 1 43585U 18063A 26063.64633616 .00013386 00000+0 22344-3 0 9993 2 43585 97.1429 130.9949 0004250 19.5629 340.5787 15.52061952424119 ICESAT-2 1 43613U 18070A 26063.58514783 .00004160 00000+0 15099-3 0 9998 2 43613 91.9986 262.7955 0003186 131.7240 228.4282 15.28285582416480 HYSIS 1 43719U 18096A 26063.59328912 .00001331 00000+0 18885-3 0 9994 2 43719 97.9955 131.1108 0001694 101.2310 258.9091 14.78641284391960 KAZSTSAT 1 43783U 18099AB 26063.54781087 .00001356 00000+0 11470-3 0 9999 2 43783 97.4410 100.1661 0007153 27.4666 332.6935 14.99607197395623 SAUDISAT 5A 1 43831U 18102A 26063.61228022 .00008309 00000+0 31708-3 0 9992 2 43831 97.3199 127.2284 0011078 138.5642 221.6439 15.26852760399719 SAUDISAT 5B 1 43833U 18102C 26063.65061693 .00008622 00000+0 32575-3 0 9998 2 43833 97.3296 130.1492 0011753 140.8944 219.3147 15.27166097399839 GAOFEN-10R 1 44622U 19066A 26063.63862676 .00002268 00000+0 28472-3 0 9994 2 44622 98.0392 16.5357 0007995 119.7245 240.4765 14.83132134346884 CARTOSAT-3 1 44804U 19081A 26063.63123824 .00008614 00000+0 40969-3 0 9994 2 44804 97.4439 127.1136 0013569 155.1981 204.9909 15.19345728347599 GAOFEN-12 01 1 44819U 19082A 26063.65317045 .00000726 00000+0 10178-3 0 9998 2 44819 97.8141 72.7838 0002004 62.7656 297.3761 14.80358251338625 CSG-1 1 44873U 19092A 26063.61253466 .00000876 00000+0 11654-3 0 9997 2 44873 97.8862 248.7238 0001314 86.5017 273.6347 14.82165385335981 NEMO-HD 1 46277U 20061F 26063.62452613 .00015214 00000+0 35427-3 0 9997 2 46277 97.2054 126.7307 0002526 84.4818 275.6717 15.42366852305857 SENTINEL-6A 1 46984U 20086A 26063.22953404 -.00000052 00000+0 38026-4 0 9993 2 46984 66.0446 353.0517 0007821 270.8298 89.1821 12.80929568246884 GAOFEN-12 02 1 48079U 21026A 26063.65311538 .00000733 00000+0 10345-3 0 9996 2 48079 97.9913 62.2779 0004187 197.1297 162.9774 14.80196268266293 PLEIADES NEO 3 1 48268U 21034A 26063.64535630 .00000745 00000+0 10127-3 0 9996 2 48268 97.8936 139.9127 0001332 91.0713 269.0652 14.81675947262174 PLEIADES NEO 4 1 49070U 21073E 26063.61157990 .00000620 00000+0 85427-4 0 9995 2 49070 97.8939 139.8754 0001295 89.9218 270.2144 14.81672516245886 LANDSAT 9 1 49260U 21088A 26063.20134290 .00000589 00000+0 14077-3 0 9991 2 49260 98.1949 135.0759 0001152 89.7578 270.3753 14.57119371235710 CSG-2 1 51444U 22008A 26063.57878872 .00000012 00000+0 80565-5 0 9990 2 51444 97.8852 248.6881 0001357 76.9128 283.2237 14.82150376221093 GAOFEN-12 03 1 52912U 22069A 26063.66116319 .00001559 00000+0 21365-3 0 9997 2 52912 97.8424 314.1015 0002156 97.8649 262.2808 14.79838690199155 SWOT 1 54754U 22173A 26063.59361007 .00000046 00000+0 33182-4 0 9998 2 54754 77.6118 176.4985 0000516 272.6500 87.4593 14.00168792164512 GAOFEN-12 04 1 57654U 23123A 26063.62265806 .00001857 00000+0 25237-3 0 9992 2 57654 97.9131 343.1595 0001695 77.4058 282.7344 14.79986314137161 PARS 1 1 59065U 24039Q 26063.62297927 .00017175 00000+0 38701-3 0 9996 2 59065 97.4745 41.4872 0011755 125.4896 234.7450 15.43263349112507 RESURS-P 4 1 59371U 24061A 26063.65403773 .00005616 00000+0 17932-3 0 9992 2 59371 97.2654 13.4019 0002709 64.4604 295.6919 15.32873027107759 LEGION 1 1 59625U 24081A 26063.52590850 .00006553 00000+0 33063-3 0 9999 2 59625 97.5082 142.4684 0005524 37.1141 323.0474 15.17450945101671 LEGION 2 1 59626U 24081B 26063.62756617 .00006895 00000+0 35682-3 0 9994 2 59626 97.5082 142.6533 0010657 3.1110 357.0187 15.16504034101697 ALOS-4 (DAICHI-4) 1 60182U 24123A 26063.59812963 .00003387 00000+0 46011-3 0 9994 2 60182 97.9201 162.2718 0001572 103.7599 256.3788 14.79475800 90411 LEGION 3 1 60452U 24146A 26063.60392257 .00007557 00000+0 39829-3 0 9992 2 60452 45.0000 231.1911 0013779 293.0472 66.8953 15.16079846 86154 LEGION 4 1 60453U 24146B 26063.60225789 .00007461 00000+0 39320-3 0 9998 2 60453 45.0040 323.0512 0009474 72.2937 287.8975 15.16138613 85007 SENTINEL-2C 1 60989U 24157A 26063.20751415 .00000202 00000+0 93731-4 0 9993 2 60989 98.5627 139.4972 0000766 99.9886 260.1383 14.30823007 77975 IONOSFERA-M 1 1 61735U 24199A 26063.61842238 .00000074 00000+0 52900-4 0 9998 2 61735 98.7335 297.8069 0002107 83.3750 276.7668 14.22734134112834 IONOSFERA-M 2 1 61736U 24199B 26063.65293113 .00000098 00000+0 63359-4 0 9991 2 61736 98.7334 297.7528 0000219 74.3000 285.8202 14.22736571115962 BIOMASS 1 63772U 25090A 26063.50729015 .00000478 00000+0 92823-4 0 9993 2 63772 98.0747 252.3303 0001174 86.7786 273.3553 14.67534563 45332 GOSAT-GW (IBUKI GW) 1 64694U 25141A 26063.59990439 .00001346 00000+0 24557-3 0 9996 2 64694 98.0500 2.6611 0001434 83.5363 276.6005 14.67565361 36503 IONOSFERA-M 3 1 64876U 25155A 26063.64743539 .00000090 00000+0 60684-4 0 9993 2 64876 98.5914 28.2504 0001934 125.8518 234.2840 14.21464979 31551 IONOSFERA-M 4 1 64877U 25155B 26063.61203156 .00000096 00000+0 63625-4 0 9991 2 64877 98.5910 28.1344 0001576 108.4196 251.7153 14.21466669 31548 MICROCARB 1 64899U 25156A 26063.21404890 .00001357 00000+0 22283-3 0 9995 2 64899 97.9894 142.2107 0015217 245.4731 114.4890 14.72193921 32521 CO3D 3 1 64900U 25156B 26063.59522569 .00002535 00000+0 12017-3 0 9996 2 64900 97.4335 143.7889 0001614 156.9315 203.1993 15.20206371 33644 CO3D 4 1 64901U 25156C 26061.29158243 .00001237 00000+0 60250-4 0 9997 2 64901 97.4334 141.5187 0000254 280.3117 79.8089 15.20203154 33293 CO3D 2 1 64902U 25156D 26063.62785890 .00013812 00000+0 63994-3 0 9990 2 64902 97.4335 143.7209 0001399 133.5640 226.5711 15.20203455 33641 CO3D 1 1 64903U 25156E 26063.62801061 .00006461 00000+0 30125-3 0 9992 2 64903 97.4332 143.7205 0001238 140.9273 219.2051 15.20208500 33643 SENTINEL-6B 1 66514U 25264A 26063.15179419 -.00000054 00000+0 30022-4 0 9995 2 66514 66.0446 353.3391 0008001 270.6931 89.3167 12.80929326 13712 CSG-3 1 67304U 26001A 26063.62519874 .00000655 00000+0 88849-4 0 9994 2 67304 97.8862 248.7361 0001349 89.5119 270.6249 14.82166515 8976